ONEWEB-0182 (48228 NORAD) Tracking and Keplerian Element Data

This shows tracking and keplerian element data for the satellite.

Feedback or suggestion? Click here.




ElementValue
Catalog48228
NameONEWEB-0182
Epoch Orbit178
Epoch Day136.83334491
Epoch Year2021
RAAN305.7293
Inclination87.4189
Eccentricity0.0006082
Argument of Perigee184.3076
Mean Anonmoly143.0584
Mean Motion15.3249727
Decay Rate-0.01342986
L11 48228U 21031U 21136.83334491 -.01342986 00000-0 -46993-1 0 9996
L22 48228 87.4189 305.7293 0006082 184.3076 143.0584 15.32497270 1788

Live tracking and technical data element details for ONEWEB-0182 (NORAD 48228). ONEWEB-0182 can be tracked NOW for your location showing map with azimuth and elevation plus other details from your city location.

Track the satellite on the map from your city or location and see movement details for azimuth, elevation, latitude, longitude, range, height, and movement on the map or in text.







IsCatalogInMostPopularTable: catalog: 48228, numindb: 5
Update: records affected: 1



GetName: 48228 ONEWEB-0182

Hit Count: updated at: Mon, 17 May 2021 16:45:59 GMT